Location: Blanot
(47.1713°N, 4.2340°E)
Time: 16:50:57
(UTC+00:00)

ISS - Visible Passes

Search period start: 25 February 2021 00:00
Search period end: 07 March 2021 00:00
Orbit: 417 x 422 km, 51.6° (Epoch: 26 February)

Date Brightness Start Highest point End Pass type
(mag) Time Alt. Az. Time Alt. Az. Time Alt. Az.
25 Feb -1.1 03:50:13 19° E 03:50:13 19° E 03:51:34 10° E visible
25 Feb -3.7 05:23:12 21° W 05:25:18 66° NNW 05:28:39 10° ENE visible
26 Feb -3.9 04:37:43 83° WSW 04:37:50 89° NW 04:41:12 10° ENE visible
27 Feb -1.4 03:52:10 25° ENE 03:52:10 25° ENE 03:53:44 10° ENE visible
27 Feb -3.1 05:25:08 18° WNW 05:27:20 42° N 05:30:35 10° ENE visible
28 Feb -3.4 04:39:31 49° NW 04:39:47 50° NNW 04:43:05 10° ENE visible
01 Mar -1.7 03:53:52 28° NE 03:53:52 28° NE 03:55:37 10° ENE visible
01 Mar -2.7 05:26:49 14° WNW 05:29:25 36° N 05:32:34 10° ENE visible
02 Mar -2.8 04:41:08 34° NW 04:41:49 38° N 04:44:59 10° ENE visible
03 Mar -1.9 03:55:25 29° NE 03:55:25 29° NE 03:57:27 10° ENE visible
03 Mar -2.8 05:28:23 11° WNW 05:31:27 41° N 05:34:40 10° E visible
04 Mar -0.2 03:09:43 11° ENE 03:09:43 11° ENE 03:09:54 10° ENE visible
04 Mar -2.7 04:42:40 27° NW 04:43:50 37° N 04:47:00 10° ENE visible
05 Mar -2.1 03:56:57 32° NNE 03:56:57 32° NNE 03:59:21 10° ENE visible
05 Mar -3.4 05:30:01 10° WNW 05:33:22 60° NNE 05:36:42 10° E visible
06 Mar -0.4 03:11:15 13° ENE 03:11:15 13° ENE 03:11:44 10° ENE visible
06 Mar -3.0 04:44:12 26° NW 04:45:47 48° NNE 04:49:03 10° E visible
